Location: Cronhütte
(48.9135°N, 9.6869°E)
Time: 08:46:51
(UTC+00:00)

H-2A R/B - Pass Details

Date: 23 May 2024
Orbit: 567 x 637 km, 98.4° (Epoch: 15 June)

Event Time Altitude Azimuth Distance (km) Brightness Sun altitude
Rises 00:31:10 0° 4° (N) 2,953 7.0 -18.6°
Reaches altitude 10° 00:33:44 10° 350° (N) 2,039 5.6 -18.4°
Maximum altitude 00:37:13 23° 298° (WNW) 1,353 3.9 -18.2°
Enters shadow 00:39:23 16° 259° (W) 1,644 3.9 -18.1°
